Windsor, Ontario

9:27 AM EDT on July 27, 2017 (GMT -0400)
Windsor

Weather History for CYQG - August, 2014

Change the Weather History Date:

Saturday, August 30, 2014

  Actual Average Record
Temperature  
Mean Temperature 73 °F -  
Max Temperature 84 °F 72 °F 93 °F (2010)
Min Temperature 62 °F 54 °F 55 °F (1999)
Cooling Degree Days 8    
Growing Degree Days 23 (Base 50)    
Moisture  
Dew Point 68 °F    
Average Humidity 76    
Maximum Humidity 94    
Minimum Humidity 55    
Precipitation  
Precipitation 0.00 in 0.11 in - ()
Sea Level Pressure  
Sea Level Pressure 29.94 in    
Wind  
Wind Speed 10 mph ()    
Max Wind Speed 21 mph    
Max Gust Speed 31 mph    
Visibility 14.9 miles    
Events      
Averages and records for this station are not official NWS values.
T = Trace of Precipitation, MM = Missing Value Source: Averaged Metar Reports

Daily Weather History Graph

Daily Weather History Graph

Search for Another Location

Airport or City:

Trip Planner

Search our weather history database for the weather conditions in past years. The results will help you decide how hot, cold, wet, or windy it might be!

Date:

Astronomy

Aug. 30, 2014 Rise Set
Actual Time 6:55 AM EDT 8:09 PM EDT
Civil Twilight 6:26 AM EDT 8:38 PM EDT
Nautical Twilight 5:51 AM EDT 9:12 PM EDT
Astronomical Twilight 5:14 AM EDT 9:49 PM EDT
Moon 11:47 AM EDT (8/30) 10:36 PM EDT (8/30)
Length of Visible Light 14h 11m
Length of Day
13h 14m
Waxing Crescent, 23% of the Moon is Illuminated
Aug 30
Waxing Crescent
Sep 2
First Quarter
Sep 8
Full
Sep 15
Last Quarter
Sep 24
New

Hourly Weather History & Observations

Time (EDT) Temp. Heat Index Dew Point Humidity Pressure Visibility Wind Dir Wind Speed Gust Speed Precip Events Conditions
12:00 AM 66.2 °F - 62.6 °F 88% 30.04 in 15.0 mi SE 4.6 mph - N/A   Mostly Cloudy
1:00 AM 66.2 °F - 62.6 °F 88% 30.03 in 15.0 mi SSE 4.6 mph - N/A   Partly Cloudy
2:00 AM 67 °F - 64 °F 85% 30.01 in 15 mi South 6.9 mph - -   Mostly Cloudy
2:00 AM 66.2 °F - 64.4 °F 94% 30.01 in 15.0 mi SSE 6.9 mph - N/A   Mostly Cloudy
3:00 AM 68.0 °F - 64.4 °F 88% 29.99 in 15.0 mi South 6.9 mph - N/A   Clear
4:00 AM 66.2 °F - 62.6 °F 88% 29.98 in 15.0 mi South 5.8 mph - N/A   Partly Cloudy
5:00 AM 68.0 °F - 64.4 °F 88% 29.97 in 15.0 mi South 8.1 mph - N/A   Partly Cloudy
6:00 AM 69.8 °F - 66.2 °F 88% 29.97 in 15.0 mi South 10.4 mph - N/A   Mostly Cloudy
7:00 AM 69.8 °F - 66.2 °F 88% 29.97 in 12.0 mi South 9.2 mph - N/A   Mostly Cloudy
8:00 AM 72 °F - 67 °F 79% 29.98 in 15 mi South 10.4 mph - -   Scattered Clouds
8:00 AM 71.6 °F - 66.2 °F 83% 29.98 in 15.0 mi South 10.4 mph - N/A   Mostly Cloudy
9:00 AM 75.2 °F - 68.0 °F 78% 29.97 in 15.0 mi SSW 13.8 mph - N/A   Mostly Cloudy
10:00 AM 77.0 °F - 68.0 °F 74% 29.96 in 15.0 mi SSW 11.5 mph 21.9 mph N/A   Mostly Cloudy
11:00 AM 78.8 °F - 69.8 °F 74% 29.95 in 15.0 mi SSW 13.8 mph 23.0 mph N/A   Mostly Cloudy
12:00 PM 80.6 °F 83.9 °F 69.8 °F 70% 29.91 in 15.0 mi South 18.4 mph 27.6 mph N/A   Overcast
1:00 PM 82.4 °F 86.3 °F 69.8 °F 66% 29.93 in 15.0 mi SSW 19.6 mph 26.5 mph N/A   Mostly Cloudy
2:00 PM 82 °F - 69 °F 55% 29.93 in 15 mi SSW 19.6 mph - -   Scattered Clouds
2:00 PM 82.4 °F 85.4 °F 68.0 °F 62% 29.93 in 15.0 mi SSW 18.4 mph 29.9 mph N/A   Mostly Cloudy
3:00 PM 84.2 °F 88.4 °F 69.8 °F 62% 29.92 in 15.0 mi SW 16.1 mph 26.5 mph N/A   Mostly Cloudy
4:00 PM 82.4 °F 86.3 °F 69.8 °F 66% 29.90 in 15.0 mi SSW 16.1 mph 25.3 mph N/A   Mostly Cloudy
5:00 PM 82.4 °F 86.3 °F 69.8 °F 66% 29.88 in 15.0 mi SSW 20.7 mph 31.1 mph N/A   Mostly Cloudy
6:00 PM 82.4 °F 86.3 °F 69.8 °F 66% 29.88 in 15.0 mi SSW 16.1 mph 26.5 mph N/A   Mostly Cloudy
7:00 PM 80.6 °F 83.9 °F 69.8 °F 70% 29.87 in 15.0 mi SSW 18.4 mph 24.2 mph N/A   Mostly Cloudy
8:00 PM 78 °F - 69 °F 68% 29.87 in 15 mi SSW 15.0 mph - -   Scattered Clouds
8:00 PM 78.8 °F - 69.8 °F 74% 29.87 in 15.0 mi SSW 13.8 mph 21.9 mph N/A   Mostly Cloudy
9:00 PM 77.0 °F - 69.8 °F 78% 29.90 in 15.0 mi SSW 17.3 mph 23.0 mph N/A   Mostly Cloudy
10:00 PM 77.0 °F - 69.8 °F 78% 29.91 in 15.0 mi SW 18.4 mph - N/A   Overcast
11:00 PM 77.0 °F - 69.8 °F 78% 29.91 in 15.0 mi SSW 13.8 mph 21.9 mph N/A   Overcast